Location: ???????
(55.4362°N, 38.1183°E)
Time: 18:00:14
(UTC+00:00)

Cosmos 2278 Rocket - Pass Details

Date: 24 October 2021
Orbit: 841 x 845 km, 71.0° (Epoch: 28 November)

Event Time Altitude Azimuth Distance (km) Brightness Sun altitude
Rises 17:45:15 0° 325° (NW) 3,419 6.2 -31.1°
Reaches altitude 10° 17:47:43 10° 323° (NW) 2,479 5.4 -31.4°
Enters shadow 17:52:28 58° 288° (WNW) 988 2.7 -32.0°
